SB KEPS @ AMSAT $ORB12222.O Orbital Elements 12222.OSCAR
HR AMSAT ORBITAL ELEMENTS FOR OSCAR SATELLITES FROM WA5QGD FORT WORTH,TX August 9, 2012 Send SUBSCRIBE KEPS/UNSUBSCRIBE KEPS to [email protected] only BID: ORB12222.O TO ALL RADIO AMATEURS BT
Satellite: AO-07 Catalog number: 07530 Epoch time: 12221.57755816 Element set: 0452 Inclination: 101.4060 deg RA of node: 216.7721 deg Eccentricity: 0.0011798 Arg of perigee: 178.8416 deg Mean anomaly: 181.2686 deg Mean motion: 12.53590655 rev/day Decay rate: -2.7e-07 rev/day^2 Epoch rev: 72661 Checksum: 300
Satellite: FO-29 Catalog number: 24278 Epoch time: 12221.83684200 Element set: 0920 Inclination: 098.5859 deg RA of node: 315.6083 deg Eccentricity: 0.0349638 Arg of perigee: 252.9973 deg Mean anomaly: 103.2581 deg Mean motion: 13.52986659 rev/day Decay rate: 1.05e-06 rev/day^2 Epoch rev: 78907 Checksum: 345
Satellite: SO-33 Catalog number: 25509 Epoch time: 12221.81127433 Element set: 294 Inclination: 031.4367 deg RA of node: 035.8722 deg Eccentricity: 0.0352678 Arg of perigee: 303.7428 deg Mean anomaly: 053.0050 deg Mean motion: 14.28798715 rev/day Decay rate: 1.49e-06 rev/day^2 Epoch rev: 72018 Checksum: 295
Satellite: RS-22 Catalog number: 27939 Epoch time: 12222.57904691 Element set: 615 Inclination: 097.8098 deg RA of node: 060.6491 deg Eccentricity: 0.0014511 Arg of perigee: 094.9133 deg Mean anomaly: 265.3734 deg Mean motion: 14.64089908 rev/day Decay rate: 6.01e-06 rev/day^2 Epoch rev: 47369 Checksum: 329
Satellite: VO-52 Catalog number: 28650 Epoch time: 12222.69407555 Element set: 176 Inclination: 097.5940 deg RA of node: 251.0278 deg Eccentricity: 0.0025346 Arg of perigee: 223.6129 deg Mean anomaly: 136.3081 deg Mean motion: 14.83088858 rev/day Decay rate: 8.18e-06 rev/day^2 Epoch rev: 39290 Checksum: 321
Satellite: HO-68 Catalog number: 36122 Epoch time: 12222.80064145 Element set: 723 Inclination: 100.3577 deg RA of node: 281.0567 deg Eccentricity: 0.0007511 Arg of perigee: 349.3332 deg Mean anomaly: 010.7623 deg Mean motion: 13.16297325 rev/day Decay rate: -4.4e-07 rev/day^2 Epoch rev: 12744 Checksum: 266
/EX SB KEPS @ AMSAT $ORB12222.D Orbital Elements 12222.MICROS
HR AMSAT ORBITAL ELEMENTS FOR THE MICROSATS FROM WA5QGD FORT WORTH,TX August 9, 2012 Send SUBSCRIBE KEPS/UNSUBSCRIBE KEPS to [email protected] only BID: ORB12222.D TO ALL RADIO AMATEURS BT
Satellite: UO-11 Catalog number: 14781 Epoch time: 12222.85194733 Element set: 943 Inclination: 097.9497 deg RA of node: 281.8918 deg Eccentricity: 0.0008233 Arg of perigee: 213.1677 deg Mean anomaly: 146.9005 deg Mean motion: 14.80515367 rev/day Decay rate: 3.60e-06 rev/day^2 Epoch rev: 52787 Checksum: 326
Satellite: AO-16 Catalog number: 20439 Epoch time: 12222.88682560 Element set: 530 Inclination: 098.4335 deg RA of node: 164.7654 deg Eccentricity: 0.0011323 Arg of perigee: 005.0068 deg Mean anomaly: 355.1223 deg Mean motion: 14.32072631 rev/day Decay rate: 1.53e-06 rev/day^2 Epoch rev: 17768 Checksum: 277
Satellite: LO-19 Catalog number: 20442 Epoch time: 12222.90169079 Element set: 460 Inclination: 098.3997 deg RA of node: 167.5986 deg Eccentricity: 0.0012055 Arg of perigee: 356.4848 deg Mean anomaly: 003.6242 deg Mean motion: 14.32289772 rev/day Decay rate: 1.37e-06 rev/day^2 Epoch rev: 17787 Checksum: 333
Satellite: AO-27 Catalog number: 22825 Epoch time: 12221.88286324 Element set: 0182 Inclination: 098.5775 deg RA of node: 163.8846 deg Eccentricity: 0.0009058 Arg of perigee: 121.7358 deg Mean anomaly: 238.4706 deg Mean motion: 14.29475819 rev/day Decay rate: 1.06e-06 rev/day^2 Epoch rev: 98400 Checksum: 332
Satellite: IO-26 Catalog number: 22826 Epoch time: 12221.87363162 Element set: 0931 Inclination: 098.5723 deg RA of node: 164.2332 deg Eccentricity: 0.0009586 Arg of perigee: 115.0980 deg Mean anomaly: 245.1195 deg Mean motion: 14.29750621 rev/day Decay rate: 9.7e-07 rev/day^2 Epoch rev: 98413 Checksum: 308
Satellite: GO-32 Catalog number: 25397 Epoch time: 12221.49007637 Element set: 0845 Inclination: 098.3663 deg RA of node: 197.6379 deg Eccentricity: 0.0002133 Arg of perigee: 113.9258 deg Mean anomaly: 246.2146 deg Mean motion: 14.23286032 rev/day Decay rate: 3.9e-07 rev/day^2 Epoch rev: 73146 Checksum: 307
Satellite: NO-44 Catalog number: 26931 Epoch time: 12222.83271581 Element set: 108 Inclination: 067.0543 deg RA of node: 342.0769 deg Eccentricity: 0.0007238 Arg of perigee: 253.4039 deg Mean anomaly: 106.6271 deg Mean motion: 14.29819970 rev/day Decay rate: 3.00e-06 rev/day^2 Epoch rev: 56691 Checksum: 297
Satellite: SO-50 Catalog number: 27607 Epoch time: 12222.75771421 Element set: 833 Inclination: 064.5580 deg RA of node: 131.9310 deg Eccentricity: 0.0080014 Arg of perigee: 237.8656 deg Mean anomaly: 121.4655 deg Mean motion: 14.72457052 rev/day Decay rate: 6.55e-06 rev/day^2 Epoch rev: 51785 Checksum: 293
Satellite: CO-55 Catalog number: 27844 Epoch time: 12221.58890935 Element set: 435 Inclination: 098.7040 deg RA of node: 229.2082 deg Eccentricity: 0.0010721 Arg of perigee: 071.6143 deg Mean anomaly: 288.6200 deg Mean motion: 14.21052461 rev/day Decay rate: 2.01e-06 rev/day^2 Epoch rev: 47233 Checksum: 272
Satellite: CO-57 Catalog number: 27848 Epoch time: 12222.58769301 Element set: 386 Inclination: 098.7119 deg RA of node: 229.5505 deg Eccentricity: 0.0010701 Arg of perigee: 074.9778 deg Mean anomaly: 285.2576 deg Mean motion: 14.20800860 rev/day Decay rate: 1.56e-06 rev/day^2 Epoch rev: 47241 Checksum: 324
Satellite: AO-51 Catalog number: 28375 Epoch time: 12222.47820598 Element set: 336 Inclination: 098.1525 deg RA of node: 185.2897 deg Eccentricity: 0.0082580 Arg of perigee: 239.8563 deg Mean anomaly: 119.4432 deg Mean motion: 14.40972506 rev/day Decay rate: 9.8e-07 rev/day^2 Epoch rev: 42644 Checksum: 334
Satellite: CP3 Catalog number: 31129 Epoch time: 12222.58537780 Element set: 233 Inclination: 097.8863 deg RA of node: 227.2239 deg Eccentricity: 0.0100185 Arg of perigee: 317.6774 deg Mean anomaly: 041.6715 deg Mean motion: 14.53160172 rev/day Decay rate: 8.51e-06 rev/day^2 Epoch rev: 28173 Checksum: 295
Satellite: CO-65 Catalog number: 32785 Epoch time: 12221.66867577 Element set: 0383 Inclination: 097.7944 deg RA of node: 281.4713 deg Eccentricity: 0.0013327 Arg of perigee: 248.2717 deg Mean anomaly: 111.7084 deg Mean motion: 14.83099109 rev/day Decay rate: 1.372e-05 rev/day^2 Epoch rev: 23154 Checksum: 326
Satellite: PRISM Catalog number: 33493 Epoch time: 12222.86421339 Element set: 959 Inclination: 098.1784 deg RA of node: 004.7342 deg Eccentricity: 0.0019868 Arg of perigee: 121.0427 deg Mean anomaly: 239.2744 deg Mean motion: 14.84132011 rev/day Decay rate: 3.096e-05 rev/day^2 Epoch rev: 19171 Checksum: 297
Satellite: SOHLA-1 Catalog number: 33496 Epoch time: 12221.92562073 Element set: 0819 Inclination: 098.1088 deg RA of node: 333.3252 deg Eccentricity: 0.0005715 Arg of perigee: 228.8080 deg Mean anomaly: 131.2634 deg Mean motion: 14.70010877 rev/day Decay rate: 2.81e-06 rev/day^2 Epoch rev: 18999 Checksum: 299
Satellite: SO-67 Catalog number: 35870 Epoch time: 12222.89305648 Element set: 218 Inclination: 097.2286 deg RA of node: 256.7544 deg Eccentricity: 0.0002461 Arg of perigee: 030.2980 deg Mean anomaly: 083.7179 deg Mean motion: 15.24214103 rev/day Decay rate: 4.525e-05 rev/day^2 Epoch rev: 16079 Checksum: 307
Satellite: TISAT-1 Catalog number: 36799 Epoch time: 12222.74558919 Element set: 235 Inclination: 098.0598 deg RA of node: 299.4695 deg Eccentricity: 0.0014923 Arg of perigee: 004.8490 deg Mean anomaly: 355.2863 deg Mean motion: 14.82120054 rev/day Decay rate: 1.808e-05 rev/day^2 Epoch rev: 11242 Checksum: 324
Satellite: STUDSAT Catalog number: 36801 Epoch time: 12221.91510794 Element set: 0461 Inclination: 098.0660 deg RA of node: 299.5900 deg Eccentricity: 0.0012734 Arg of perigee: 353.1749 deg Mean anomaly: 006.9293 deg Mean motion: 14.84750214 rev/day Decay rate: 5.207e-05 rev/day^2 Epoch rev: 11234 Checksum: 283
Satellite: FO-69 Catalog number: 37227 Epoch time: 12179.46825757 Element set: 0219 Inclination: 071.9703 deg RA of node: 289.2712 deg Eccentricity: 0.0018108 Arg of perigee: 298.3339 deg Mean anomaly: 061.6016 deg Mean motion: 14.77092260 rev/day Decay rate: 1.66e-06 rev/day^2 Epoch rev: 03761 Checksum: 323
Satellite: FO-70 Catalog number: 37380 Epoch time: 12179.47554455 Element set: 0223 Inclination: 071.9743 deg RA of node: 289.8278 deg Eccentricity: 0.0018623 Arg of perigee: 295.0880 deg Mean anomaly: 064.8372 deg Mean motion: 14.76843679 rev/day Decay rate: 2.08e-06 rev/day^2 Epoch rev: 03750 Checksum: 341
Satellite: ALMASAT-1 Catalog number: 38078 Epoch time: 12222.39387379 Element set: 459 Inclination: 069.4880 deg RA of node: 196.5988 deg Eccentricity: 0.0751909 Arg of perigee: 182.2093 deg Mean anomaly: 177.5651 deg Mean motion: 14.10849374 rev/day Decay rate: 1.6813e-04 rev/day^2 Epoch rev: 2505 Checksum: 352
Satellite: XATCOBEO Catalog number: 38082 Epoch time: 12221.95299609 Element set: 0459 Inclination: 069.4862 deg RA of node: 194.2561 deg Eccentricity: 0.0721762 Arg of perigee: 180.9884 deg Mean anomaly: 178.9988 deg Mean motion: 14.20006668 rev/day Decay rate: 4.0858e-04 rev/day^2 Epoch rev: 02507 Checksum: 351
/EX SB KEPS @ AMSAT $ORB12222.W Orbital Elements 12222.WEATHER
HR AMSAT ORBITAL ELEMENTS FOR WEATHER SATELLITES FROM WA5QGD FORT WORTH,TX August 9, 2012 Send SUBSCRIBE KEPS/UNSUBSCRIBE KEPS to [email protected] only BID: ORB12222.W TO ALL RADIO AMATEURS BT
Satellite: NOAA-10 Catalog number: 16969 Epoch time: 12222.70856501 Element set: 21 Inclination: 098.5780 deg RA of node: 250.8048 deg Eccentricity: 0.0013119 Arg of perigee: 078.8061 deg Mean anomaly: 281.4590 deg Mean motion: 14.27567928 rev/day Decay rate: -3.0e-07 rev/day^2 Epoch rev: 34750 Checksum: 299
